Location: Dover
(39.1580°N, 75.5250°W)
Time: 03:17:05
(UTC-04:00)

SeaSat 1 - Visible Passes

Search period start: 18 April 2015 00:00
Search period end: 28 April 2015 00:00
Orbit: 746 x 749 km, 108.0° (Epoch: 17 April)

Date Brightness Start Highest point End Pass type
(mag) Time Alt. Az. Time Alt. Az. Time Alt. Az.
18 Apr 4.2 05:16:28 10° NE 05:20:48 31° ESE 05:25:10 10° S visible
19 Apr 5.3 04:37:36 10° E 04:38:34 11° E 04:39:53 10° ESE visible
20 Apr 4.1 05:30:29 10° NE 05:34:58 35° ESE 05:39:28 10° S visible
21 Apr 5.2 04:50:55 10° ENE 04:52:47 12° E 04:54:56 10° SE visible
22 Apr 3.9 05:44:31 10° NE 05:49:07 39° ESE 05:53:44 10° S visible
23 Apr 5.2 05:04:32 10° ENE 05:06:58 14° ESE 05:09:40 10° SE visible
25 Apr 5.1 05:18:17 10° ENE 05:21:10 16° ESE 05:24:15 10° SE visible
27 Apr 5.1 05:32:05 10° ENE 05:35:20 18° ESE 05:38:44 10° SSE visible
